User: anonymous   Login
Location: Unspecified
(0.0000°N, 0.0000°E)
Time: 00:49:36
(UTC+00:00)
Language:

HODOYOSHI 3 - Orbit

View from above orbital plane
View from above orbital plane
View from above satellite
View from above satellite

Ground track
Ground track

The orbit is defined by the following mean orbital elements,

1 40015U          26118.73810240 +.00000000 +00000-0 +16117-3 0 00005
2 40015  97.6374 283.7856 0033597 155.1840 205.1000 14.85275953    05
Epoch (UTC): 28 April 2026 17:42:52
Eccentricity: 0.0033597
inclination: 97.6374°
perigee height: 589 km
apogee height: 636 km
right ascension of ascending node: 283.7856°
argument of perigee: 155.1840°
revolutions per day: 14.85275953
mean anomaly at epoch: 205.1000°

The dashed part of the orbit path shows where the satellite is in the earth's shadow,  

DLR